Tracking 18917 objects as of 16-Jan-2018
HD Live streaming from Space Station
objects crossing your sky now

DSCS 2-15

Track DSCS 2-15 now!
DSCS 2-15 is classified as:


NORAD ID: 13636
Int'l Code: 1982-106A
Perigee: 37,297.3 km
Apogee: 37,326.3 km
Inclination: 16.1 °
Period: 1,514.3 minutes
Semi major axis: 43682 km
RCS: 4.13 m2 (large)
Launch date: October 30, 1982
Source: United States (US)
Launch site: AIR FORCE EASTERN TEST RANGE (AFETR)
aabbcc
Your satellite tracking list
Your tracking list is empty




NASA's NSSDC Master Catalog

Two Line Element Set (TLE):
1 13636U 82106A   18015.17271480 -.00000144 +00000-0 +00000-0 0  9991
2 13636 016.0672 350.6361 0003322 280.2214 256.6419 00.95090644074883
Source of the keplerian elements: AFSPC